sat.trackr.live / text

‹ back to catalog

STARLINK-5327

NORAD 55291 · 2023-010Y

PAYLOAD ACTIVE UNKNOWN

§ Identity

Operator
Country
US
Launch date
2023-01-19
Launch site
AFWTR
Launch vehicle
Mass (kg)
RCS (m²)

Purposes: comms

External: N2YO · Heavens-Above · Gunter

§ Orbital elements

Epoch: 2026-09-20T22:45:31.836096Z

Period
96.11 min
Inclination
69.9984°
Eccentricity
0.0002997
Mean motion
14.98330072 rev/d
Perigee alt
570.0 km
Apogee alt
574.1 km
Semi-major
6,950.2 km
B*
2.9245e-6
RAAN
252.2703°
Arg perigee
273.2885°
Mean anomaly
86.7931°
Rev number
20,251

§ Raw data

STARLINK-53271 55291U 23010Y   26263.94828514 -.00000058  00000+0  29245-5 0  99982 55291  69.9984 252.2703 0002997 273.2885  86.7931 14.98330072202513

JSON: /api/v1/satellites/55291 · /tle

For live sub-satellite position, see the globe view (requires WebGL).

§ Visibility from observer

Set your observer location to see the next 7 days of passes ≥ 10°. The values pass through the URL so the page stays shareable.

No JS? Fill the form by hand. The geolocation button needs JavaScript.